Location: Observatoire
(46.1952°N, 5.3391°E)
Time: 06:27:46
(UTC+01:00)

A-11 Canister half - Pass Details

Date: 17 February 2026
Orbit: 1524 x 1683 km, 47.3° (Epoch: 13 March)

Event Time Altitude Azimuth Distance (km) Brightness Sun altitude
Rises 14:20:45 0° 167° (SSE) 4,739 12.3 28.7°
Reaches altitude 10° 14:27:32 10° 133° (SE) 3,723 11.3 28.2°
Maximum altitude 14:29:21 11° 122° (ESE) 3,662 11.1 28.0°
Drops below altitude 10° 14:31:09 10° 110° (ESE) 3,710 11.0 27.9°
Sets 14:37:48 0° 77° (ENE) 4,679 11.2 27.3°
